Home > Time Zones > World Clock > Weather > Italy > Bari > Past weeks

Flag for Italy Weather past 2 weeks in Bari, Italy

Now
70 °F

Passing clouds.


Feels Like: 70 °F
Forecast: 60 / 75 °F
Wind: 5 mph from North

Location: Bari / Palese Macchie

Current Time: Oct 20, 2014 at 12:15:33 PM

Latest Report: Oct 20, 2014 at 11:50 AM


Visibility: N/A

Pressure: 30.21 "Hg

Humidity: 69%

Dew point: 59 °F

Location of BariLocation

Historic Weather in Bari — Graph

°F

Bari temperature yesterday

Maximum temperature yesterday: 73 °F (at 2:20 PM)
Minimum temperature yesterday: 59 °F (at 9:50 PM)
Average temperature yesterday: 66 °F

Past Weeks' High & Low Weather Summary

 TemperatureHumidityPressure
High82 °F (Oct 11, 12:20 PM)100% (Oct 5, 10:20 AM)30.30 "Hg (Oct 5, 10:20 AM)
Low54 °F (Oct 8, 6:50 AM)35% (Oct 11, 12:20 PM)29.80 "Hg (Oct 15, 3:50 PM)
Average68 °F78%30.04 "Hg
* Reported Oct 5 10:20 AM — Oct 20 10:50 AM, Bari, Weather by CustomWeather, © 2014

Note: Actual official high and low records may vary slightly from our data, if they occured in-between our weather recording intervals... More about our weather records

Advertising

Bari weather history for previous 24 hours

 ConditionsComfort  
Time TempWeatherWind HumidityBarometerVisibility
10:50 AM
Oct 20
70 °FSunny.2 mph69%30.21 "Hg10 mi
10:20 AM68 °FSunny.2 mph78%30.21 "Hg10 mi
9:50 AM66 °FSunny.2 mph78%30.21 "Hg10 mi
9:20 AM64 °FSunny.2 mph78%30.21 "Hg10 mi
8:50 AM63 °FSunny.3 mph83%30.21 "Hg10 mi
8:20 AM55 °FSunny.6 mph94%30.21 "Hg10 mi
7:50 AM55 °FClear.6 mph94%30.21 "Hg10 mi
7:20 AM55 °FClear.7 mph94%30.21 "Hg10 mi
6:50 AM55 °FClear.7 mph88%30.21 "Hg10 mi
5:20 AM55 °FClear.6 mph88%30.21 "Hg10 mi
4:50 AM55 °FClear.2 mph88%30.21 "Hg10 mi
4:20 AM55 °FClear.2 mph88%30.21 "Hg10 mi
3:50 AM55 °FClear.2 mph88%30.21 "Hg10 mi
3:20 AM55 °FClear.2 mph88%30.21 "Hg10 mi
2:50 AM55 °FClear.2 mph88%30.21 "Hg10 mi
2:20 AM57 °FClear.2 mph88%30.24 "Hg10 mi
1:50 AM57 °FClear.5 mph88%30.24 "Hg10 mi
1:20 AM57 °FClear.5 mph88%30.24 "Hg10 mi
12:50 AM57 °FClear.5 mph88%30.24 "Hg10 mi
12:20 AM59 °FClear.6 mph82%30.24 "Hg10 mi
11:20 PM
Oct 19
59 °FClear.7 mph82%30.24 "Hg10 mi
10:50 PM59 °FClear.6 mph88%30.27 "Hg10 mi
10:20 PM59 °FClear.6 mph88%30.27 "Hg10 mi
9:50 PM59 °FClear.6 mph88%30.27 "Hg10 mi
8:50 PM61 °FClear.5 mph83%30.24 "Hg10 mi
8:20 PM61 °FClear.5 mph83%30.24 "Hg10 mi
7:50 PM61 °FClear.2 mph83%30.24 "Hg10 mi
7:20 PM61 °FClear.1 mph88%30.24 "Hg10 mi
6:50 PM64 °FSunny.No wind73%30.24 "Hg10 mi
5:50 PM68 °FSunny.5 mph64%30.24 "Hg10 mi
5:20 PM70 °FPassing clouds.6 mph60%30.24 "HgN/A
4:50 PM70 °FSunny.6 mph60%30.24 "Hg10 mi
4:20 PM70 °FPassing clouds.7 mph60%30.24 "HgN/A
3:50 PM72 °FSunny.7 mph57%30.24 "Hg10 mi
3:20 PM72 °FPassing clouds.7 mph53%30.27 "HgN/A
2:20 PM73 °FPassing clouds.7 mph53%30.27 "HgN/A
1:50 PM72 °FPassing clouds.7 mph57%30.27 "HgN/A
1:20 PM72 °FPassing clouds.8 mph53%30.27 "HgN/A
12:50 PM72 °FPassing clouds.7 mph61%30.27 "HgN/A
12:20 PM72 °FPassing clouds.8 mph61%30.30 "HgN/A
Weather by CustomWeather, © 2014

See weather overviewHow to use our weather pages